Wind_Speed
10 11 21 21 16 13 11 15 20 11 2 10 17 18 21 23 23 19 13 12 13 14 15 20 24 26 25 25 26 27 26 24 23 23 21 18 19 18 17 17 17 16 15 15
8 20 22 17 20 18 7 17 19 5 6 6 14 21 19 23 24 22 21 17 15 13 14 18 24 26 28 27 28 28 28 26 27 24 22 21 20 19 19 19 19 18 18 19
24 16 21 19 18 21 20 17 16 8 7 5 7 20 21 23 24 23 21 22 18 15 16 16 24 29 30 30 29 29 30 30 30 28 25 21 18 18 19 20 22 21 21 22
22 19 27 20 21 19 21 9 14 9 8 5 6 8 17 18 22 22 23 22 22 19 17 16 23 27 31 32 30 31 30 31 31 32 27 28 26 23 23 23 22 23 24 24
13 21 22 24 23 19 4 9 6 3 2 1 7 5 8 13 18 19 18 23 24 20 19 18 21 29 33 33 34 33 33 32 32 33 33 31 28 27 24 24 24 26 27 26
10 4 16 18 15 15 16 10 11 6 1 7 15 10 10 13 19 15 15 17 21 21 21 19 25 25 27 31 33 34 34 35 35 35 36 34 32 28 26 25 25 23 29 28
9 11 3 8 19 16 13 12 3 6 5 6 2 11 16 16 15 12 13 14 15 18 19 19 19 23 28 31 34 35 37 37 38 36 36 37 34 32 30 28 26 24 25 31
14 6 15 10 17 10 15 18 7 8 10 8 3 10 4 8 13 12 16 13 11 10 11 14 16 23 28 33 36 36 37 39 37 38 39 37 37 34 32 30 27 26 27 35
15 6 4 12 9 16 4 9 2 2 1 2 7 9 8 12 11 14 13 11 14 13 9 9 14 21 26 28 32 35 35 35 36 40 37 37 36 36 33 31 30 28 26 26
15 7 1 2 6 1 14 10 2 2 5 7 8 11 7 6 8 8 5 9 8 8 11 9 8 15 20 23 26 28 31 33 33 33 35 36 36 35 35 31 31 29 30 31
19 9 2 8 8 9 8 7 6 3 6 4 4 5 4 6 4 1 3 3 4 5 6 7 6 12 15 18 18 25 28 30 29 30 33 33 33 34 33 32 31 31 34 38
7 7 7 3 2 10 12 11 14 6 7 5 5 8 5 7 5 6 4 5 4 4 3 5 6 6 10 13 16 20 22 26 31 30 31 32 31 30 32 33 32 34 35 37
10 7 7 4 2 0 9 17 17 10 2 13 6 8 5 7 3 3 2 3 6 4 5 4 3 5 8 10 12 14 17 21 23 26 29 30 32 32 33 33 37 38 38 34
9 10 14 16 19 10 9 16 18 17 6 13 17 17 9 7 5 4 4 4 10 11 5 5 4 5 6 8 10 11 13 15 16 20 22 24 28 29 29 33 36 37 38 35
6 5 7 2 12 18 18 22 20 22 29 14 24 24 16 14 13 13 11 12 11 11 8 4 4 4 5 7 9 10 11 12 14 16 17 18 18 29 31 32 33 33 34 34
4 4 7 2 10 14 16 20 23 27 29 22 26 24 10 12 9 7 9 11 14 12 10 8 5 4 7 9 10 12 12 12 11 12 13 15 18 22 25 27 26 27 28 31
13 7 3 5 10 8 2 24 26 25 24 28 20 31 9 8 8 10 11 12 11 10 10 11 13 9 8 10 13 14 13 13 14 16 17 18 20 21 23 24 26 29 31 32
13 8 3 4 4 5 2 5 21 26 20 24 21 13 11 13 15 10 13 14 14 14 13 10 10 18 18 10 11 13 16 18 18 19 19 19 19 21 23 25 27 28 29 32
12 6 4 6 11 1 8 5 16 16 18 18 23 19 21 19 13 18 14 14 17 14 9 10 15 16 12 8 7 12 17 19 18 19 19 18 18 20 21 22 24 26 28 30
11 11 5 4 7 11 4 9 6 14 6 15 23 19 16 10 8 8 6 7 8 9 10 12 13 10 8 5 3 10 12 13 15 17 18 17 19 21 22 23 25 25 26 30
12 9 8 6 3 3 3 8 11 7 3 2 10 10 8 9 8 5 4 5 7 8 10 13 10 9 9 6 4 5 7 13 13 15 17 18 19 21 21 21 22 23 26 27
13 12 5 3 5 7 10 10 11 3 3 5 5 3 3 0 4 4 6 7 8 7 10 11 9 10 10 9 5 5 6 9 10 10 13 15 17 18 19 20 21 22 25 24
7 8 6 9 5 1 13 1 5 2 5 3 6 4 4 6 6 7 7 9 9 13 12 12 12 12 15 13 11 11 11 10 6 7 9 12 14 17 19 21 23 24 26 24
2 2 4 5 4 3 9 4 4 4 8 8 8 8 6 9 8 9 8 8 9 12 14 17 18 17 19 20 15 10 7 7 6 5 7 9 12 14 15 17 21 22 24 24
1 7 5 1 2 4 1 2 9 8 11 11 9 9 10 12 10 8 6 5 7 9 11 15 16 15 18 20 20 18 15 10 5 3 4 6 8 11 13 15 18 18 22 25
6 4 4 1 1 1 3 10 9 9 9 9 10 8 6 8 9 7 7 7 7 6 9 12 15 15 14 14 14 14 13 10 8 7 5 3 6 8 10 12 12 11 15 18
Wind_Direction
194 199 207 197 204 226 210 210 214 216 211 214 236 249 250 249 252 252 248 257 252 233 227 211 209 203 206 204 199 195 194 198 195 197 200 207 208 213 213 211 214 210 209 212
175 218 205 207 192 210 208 218 212 242 96 220 240 246 244 250 250 247 248 248 249 239 223 212 209 207 206 206 206 200 196 197 198 197 201 207 212 216 217 212 214 212 213 216
204 208 211 210 199 205 211 223 216 195 167 229 275 264 256 253 257 254 247 248 244 253 230 217 211 208 206 209 207 205 201 200 199 197 200 206 214 218 221 220 216 214 213 222
215 211 194 205 207 204 212 207 231 132 166 229 183 283 257 249 245 240 238 237 234 231 236 226 215 213 208 208 207 211 208 204 204 201 201 199 202 203 212 217 214 217 223 226
186 197 194 197 203 199 212 161 172 130 207 325 200 252 271 237 246 242 240 226 223 222 228 225 217 214 214 205 206 207 211 210 207 204 206 204 206 208 210 214 216 215 224 226
163 253 183 202 190 181 132 102 70 55 50 248 231 216 246 246 248 248 251 245 222 217 213 220 219 217 215 212 207 206 209 211 210 207 209 210 211 206 208 209 212 211 217 222
150 166 127 213 182 144 142 151 125 204 217 237 81 216 249 293 267 291 277 252 241 223 218 216 211 204 211 210 209 209 208 211 211 211 210 213 216 214 214 212 209 207 210 214
166 175 175 186 175 176 174 185 194 217 222 254 144 239 243 245 266 273 255 254 271 237 217 230 223 214 208 208 209 210 212 214 210 211 214 215 218 216 217 218 217 214 213 218
170 130 93 169 154 158 180 205 216 113 132 269 212 241 249 246 263 263 249 253 246 241 251 244 229 223 218 214 213 212 215 218 214 215 216 217 218 217 218 218 218 218 215 215
177 121 11 131 88 116 188 142 113 237 207 241 236 237 245 260 257 301 289 260 261 273 256 229 236 239 233 228 224 218 218 221 221 219 217 218 218 218 218 217 215 216 218 212
167 134 177 152 201 164 153 183 207 199 242 259 272 241 145 188 30 311 352 7 17 346 312 292 259 241 239 233 225 220 217 218 221 220 220 219 219 218 217 217 217 217 213 217
138 129 145 161 339 199 211 189 197 205 196 244 323 251 168 152 103 103 62 76 39 20 330 299 291 274 241 238 233 231 225 221 220 218 218 219 219 216 214 214 215 216 215 222
164 142 120 115 27 19 198 202 203 204 33 217 215 254 230 184 232 160 130 22 0 37 359 336 326 290 266 244 239 239 236 230 227 219 216 215 212 212 211 211 214 217 217 223
145 167 182 191 188 130 184 193 202 208 206 221 224 240 164 152 158 196 247 323 326 329 314 341 324 313 282 266 263 253 240 236 226 218 219 217 215 211 208 215 222 222 221 222
160 141 189 200 180 169 184 185 185 202 224 206 239 241 238 267 281 293 297 316 314 301 304 306 304 307 287 263 244 235 238 228 222 220 216 221 215 224 221 219 218 221 222 220
226 125 122 57 155 181 190 192 199 213 228 232 252 266 272 267 262 260 274 283 285 287 288 303 297 260 268 268 245 231 217 213 214 223 228 216 214 214 220 218 215 216 217 217
174 138 124 142 153 133 241 210 201 215 218 220 233 240 269 278 278 271 276 276 270 292 289 288 296 301 271 253 239 231 214 200 210 214 220 228 230 225 224 223 221 218 216 215
160 130 80 136 138 194 224 188 207 216 223 222 240 253 267 273 268 281 268 275 281 283 290 292 285 289 303 258 239 224 206 194 210 219 225 220 226 228 225 219 217 212 212 212
151 124 110 157 202 321 187 211 193 191 233 222 235 250 251 261 279 274 278 275 267 274 309 322 307 304 300 271 237 216 202 207 205 217 224 227 225 228 225 225 219 214 208 203
190 180 159 170 185 215 104 175 191 174 266 210 217 233 244 259 249 262 35 25 22 9 359 336 328 329 324 316 243 215 222 217 219 223 226 230 226 227 226 224 222 217 212 203
186 193 187 196 205 259 139 155 150 165 219 51 191 219 229 219 236 80 36 28 22 13 358 350 359 13 12 355 285 234 232 237 241 233 234 229 229 223 222 224 219 213 201 198
174 176 177 165 190 226 149 144 186 142 54 112 114 140 178 125 48 55 54 41 32 28 22 16 25 31 26 21 25 356 334 305 278 260 240 229 225 227 218 213 213 211 205 197
189 194 174 194 180 97 180 127 144 71 123 141 131 111 91 94 72 50 43 41 34 19 20 23 42 53 38 32 30 8 349 327 298 268 251 244 233 225 224 213 207 203 203 191
244 80 152 117 223 184 171 86 118 126 120 112 109 107 109 112 98 83 55 35 34 21 15 18 29 31 27 30 34 26 1 349 325 281 253 238 232 228 226 223 220 203 195 190
81 145 153 211 50 97 271 196 146 131 116 111 103 113 122 120 108 112 100 66 45 31 28 45 46 41 29 29 25 21 15 7 355 292 267 253 237 236 229 225 226 220 222 212
355 10 204 170 127 1 139 162 145 133 127 128 127 108 72 104 109 111 93 79 64 41 43 51 54 54 44 47 44 37 32 24 6 0 354 309 246 234 222 210 211 212 228 220
Height
810 810 797 799 805 800 801 806 810 802 802 807 808 806 804 795 794 796 798 797 797 797 802 809 814 817 822 826 829 833 837 842 846 849 852 856 857 860 861 863 865 867 869 870
808 796 790 791 797 804 808 809 806 802 807 811 804 802 795 791 790 788 790 789 791 793 796 803 808 813 817 821 825 828 831 836 840 843 847 850 853 856 858 859 861 864 866 867
783 784 790 790 794 803 801 807 797 802 812 816 814 804 795 787 785 782 780 782 784 788 791 795 802 804 809 814 819 823 825 828 832 835 840 845 849 851 853 855 856 858 860 862
784 777 781 787 793 794 803 798 797 810 814 824 814 817 786 777 775 772 772 774 775 782 783 786 793 798 801 805 811 817 820 822 826 830 832 834 836 839 844 848 851 852 855 857
777 770 779 785 789 793 801 799 804 812 825 834 826 835 783 770 771 762 758 761 762 770 776 779 782 788 793 798 801 806 813 815 817 820 823 825 827 830 836 840 844 845 848 851
771 771 771 779 783 789 806 816 825 840 840 830 808 817 778 769 761 757 754 753 753 758 762 768 774 781 789 792 794 797 803 805 809 811 815 817 821 823 827 831 836 839 841 845
773 776 777 775 784 798 799 809 829 835 831 809 794 801 782 759 753 749 749 750 750 751 755 759 764 771 779 783 786 790 792 794 799 804 806 811 815 818 820 824 828 831 834 836
768 788 777 773 776 797 797 790 795 813 804 786 806 791 767 754 747 748 747 747 750 747 752 755 757 762 768 772 776 781 783 784 790 794 796 802 808 810 813 817 821 824 826 828
751 775 784 773 774 782 806 796 785 804 831 802 777 767 759 750 752 748 746 748 747 748 751 752 754 757 762 765 768 772 776 779 781 784 790 794 798 802 804 808 811 816 819 823
730 771 787 787 782 790 783 791 811 805 807 797 760 763 758 750 745 740 742 745 746 748 748 751 754 756 759 761 764 767 769 772 775 779 782 785 790 794 797 800 803 807 811 814
721 745 792 788 787 786 788 793 786 782 780 779 773 752 732 740 749 748 746 747 747 749 749 748 749 752 755 757 758 760 761 763 768 773 776 779 782 785 790 793 797 799 801 805
721 738 773 782 789 779 772 779 778 783 789 785 783 765 742 742 745 747 747 749 749 749 750 750 749 749 752 754 756 757 757 758 759 762 768 771 775 778 781 785 789 792 796 798
724 747 777 792 792 789 777 771 769 766 783 780 785 752 731 735 746 744 746 748 744 746 747 746 747 748 749 749 751 753 753 753 756 759 761 763 764 768 772 775 779 783 788 791
717 733 732 737 735 762 774 770 772 770 783 766 763 741 741 740 741 742 741 740 743 744 745 742 745 746 746 746 747 749 749 751 753 756 757 759 761 763 766 771 773 779 783 786
714 734 728 722 723 743 753 760 768 770 749 761 736 736 737 735 733 732 733 737 743 742 739 739 741 742 744 744 744 745 748 749 752 754 755 758 761 764 764 766 768 773 778 782
712 733 733 748 735 738 749 754 759 757 744 754 737 735 733 732 733 741 741 741 739 739 738 737 736 737 738 738 740 741 742 746 750 753 756 757 756 760 764 765 765 769 773 777
716 726 738 751 745 751 760 740 742 741 745 738 748 717 733 736 738 738 736 735 735 736 736 735 735 735 734 734 735 737 738 740 744 747 750 754 756 757 761 764 764 763 767 772
712 725 743 760 757 755 725 724 723 732 733 736 729 728 732 733 734 733 732 733 734 733 734 733 733 732 731 730 731 734 736 734 738 743 746 747 752 756 758 758 760 761 763 767
703 713 749 751 740 726 725 726 723 730 729 726 728 730 728 727 731 728 728 729 729 731 733 735 733 731 730 730 729 732 731 733 731 736 741 746 750 755 758 762 762 761 761 763
704 704 722 747 731 726 705 710 715 722 734 712 713 718 723 728 735 725 731 733 734 735 736 735 733 731 731 731 731 732 733 734 733 735 738 742 747 751 756 759 764 764 765 765
712 714 722 732 723 719 714 722 717 737 715 710 706 712 719 724 721 729 733 735 738 739 738 736 733 733 734 735 735 735 734 735 733 733 738 742 746 748 751 758 762 764 765 768
700 708 716 731 721 719 711 722 714 705 712 715 716 720 720 723 728 733 736 739 740 740 739 737 737 736 736 737 734 737 736 738 739 738 740 742 744 749 750 752 759 764 766 769
699 687 697 697 696 697 700 696 704 709 711 717 718 723 724 728 733 738 741 742 745 746 745 743 740 739 739 736 733 735 738 738 737 739 743 746 745 747 751 752 755 759 765 768
695 700 697 702 705 699 701 707 708 710 714 720 722 725 727 732 735 741 746 748 749 750 749 746 745 745 743 741 740 740 739 738 738 740 743 744 748 751 752 755 758 759 763 763
692 698 706 708 711 708 710 708 712 718 718 724 729 729 731 733 738 741 745 748 750 750 748 745 744 745 746 746 745 743 742 741 741 742 742 744 745 749 752 755 759 764 767 766
716 712 689 685 697 692 695 708 713 717 719 726 731 735 735 734 738 744 746 750 752 753 751 748 747 746 746 743 743 743 744 746 748 747 745 745 748 751 753 756 761 764 766 768